User: anonymous   Login
Location: Powell Observatory
(38.6461°N, 94.6997°W)
Time: 01:42:00
(UTC-06:00)
Language:

Tiangong - Orbit

View from above orbital plane
View from above orbital plane
View from above satellite
View from above satellite

Ground track
Ground track

The orbit data is extracted from the following two-line orbital elements,

1 48274U 21035A   22028.79327728  .00014332  00000-0  16820-3 0  9998
2 48274  41.4705 348.2875 0004417 200.2169 237.4399 15.61187411 42975
Epoch (UTC): 28 January 2022 19:02:19
Eccentricity: 0.0004417
inclination: 41.4705°
perigee height: 381 km
apogee height: 387 km
right ascension of ascending node: 348.2875°
argument of perigee: 200.2169°
revolutions per day: 15.61187411
mean anomaly at epoch: 237.4399°
orbit number at epoch: 4297

The dashed part of the orbit path shows where the satellite is in the earth's shadow,  

DLR